Regional Weather Roundup
Issued by NWS

Home | Current Version | Previous Version | Graphics & Text | Print | Product List | Glossary On
Versions: 1 2 3 4 5 6 7 8 9 10 11 12 13 14 15 16 17 18 19 20 21 22 23 24 25 26 27 28 29
000
ASUS43 KDMX 310407
RWRIA

WEATHER ROUNDUP FOR IOWA
NATIONAL WEATHER SERVICE DES MOINES IA
1100 PM CDT THU OCT 30 2014

NOTE: "FAIR" INDICATES FEW OR NO CLOUDS BELOW 12,000 FEET WITH NO
SIGNIFICANT WEATHER AND/OR OBSTRUCTIONS TO VISIBILITY.

* - THESE STATIONS ARE NOT NWS STATIONS...THUS NOT UNDER NWS
QUALITY CONTROL.  THEY ALSO DO NOT REPORT WEATHER SUCH
AS PRECIPITATION OR FOG.

IAZ001>003-012>014-020>022-031>034-043>046-310500-
   NORTHWEST IOWA

CITY           SKY/WX    TMP DP  RH WIND       PRES   REMARKS
CARROLL *      CLOUDY    41  32  70 N26G36    30.31R
CHEROKEE *     CLOUDY    36  27  69 N17G29    30.39R WCI  25
DENISON *      CLOUDY    39  32  75 N15G26    30.33R WCI  31
LE MARS *      CLOUDY    37  27  65 N24G36    30.42R WCI  26
ORANGE CITY *  CLOUDY    36  25  64 N20G29    30.41R WCI  25
SHELDON *      CLOUDY    34  23  64 N22G38    30.41R WCI  22
SIOUX CITY     CLOUDY    41  29  62 N25       30.41R
SPENCER        CLOUDY    36  25  64 N25G36    30.37R WCI  24
STORM LAKE *   CLOUDY    36  27  69 N22G30    30.36R WCI  24
$$

IAZ055>058-069>071-079>083-090>094-310500-
   SOUTHWEST IOWA

CITY           SKY/WX    TMP DP  RH WIND       PRES   REMARKS
ATLANTIC *     CLOUDY    46  37  71 N25G31    30.29R
AUDUBON *      CLOUDY    43  32  65 N18G32    30.31R
CLARINDA *     CLOUDY    50  41  71 N21G30    30.27R
COUNCIL BLFS * CLOUDY    45  39  81 N16G28    30.31R
CRESTON *      CLOUDY    46  39  76 N17G30    30.24R
HARLAN  *      CLOUDY    43  36  75 N23G32    30.35R
LAMONI         LGT RAIN  50  38  63 N16G28    30.18R
RED OAK *      CLOUDY    48  39  71 N20G29    30.29R
SHENANDOAH *   CLOUDY    50  41  71 N20G32    30.28R
$$

IAZ047>049-059>061-072>074-084-310500-
   CENTRAL IOWA

CITY           SKY/WX    TMP DP  RH WIND       PRES   REMARKS
AMES           CLOUDY    45  33  63 N24G41    30.24R
ANKENY *       CLOUDY    48  37  66 N23G37    30.23R
CHARITON *     CLOUDY    52  39  62 N24G32    30.18R
DES MOINES     CLOUDY    49  37  63 N21G29    30.23R
GRINNELL*      CLOUDY    48  36  61 N15       30.19R
KNOXVILLE *    CLOUDY    50  36  57 N20G31    30.18R
MARSHALLTOWN   CLOUDY    47  37  68 N23G33    30.20R
PELLA *        CLOUDY    50  37  62 N10G22    30.20R
PERRY *        CLOUDY    45  36  70 N21G30    30.26R
$$

IAZ004>006-015-016-023>025-035-036-310500-
   NORTH CENTRAL IOWA

CITY           SKY/WX    TMP DP  RH WIND       PRES   REMARKS
ALGONA *       CLOUDY    39  27  60 N20G28    30.31R WCI  30
CLARION *      CLOUDY    41  30  65 N22G32    30.27R
ESTHERVILLE    CLOUDY    36  26  67 N24G32    30.34R WCI  24
FORT DODGE *   CLOUDY    41  28  60 N13G21    30.30R
MASON CITY     MOCLDY    39  28  64 N24G36    30.26R WCI  28
FOREST CITY *  CLOUDY    39  30  70 N20G30    30.27R WCI  30
IOWA FALLS *   CLOUDY    45  34  65 N20G28    30.24R
$$

IAZ007>011-017>019-026>030-037>042-050>054-066-310500-
   NORTHEAST IOWA

CITY           SKY/WX    TMP DP  RH WIND       PRES   REMARKS
CEDAR RAPIDS   CLOUDY    48  39  71 N13G20    30.14R
CHARLES CITY * CLOUDY    43  32  65 N15G23    30.22R
CLINTON *      CLOUDY    45  37  76 NW5       30.13S
DECORAH *      CLOUDY    43  28  56 N15G24    30.17R
DUBUQUE        CLOUDY    46  37  71 NW16      30.11R
MONTICELLO *   CLOUDY    48  39  71 NW15      30.13R
OELWEIN *      CLOUDY    45  34  65 N22G32    30.18R
WATERLOO       CLOUDY    45  33  63 N26G35    30.19R
$$

IAZ064-065-067-068-078-310500-
   EAST CENTRAL IOWA

CITY           SKY/WX    TMP DP  RH WIND       PRES   REMARKS
DAVENPORT      CLOUDY    46  38  73 NW6       30.12R
IOWA CITY      CLOUDY    49  39  68 NW6       30.15R
MT. PLEASANT * CLOUDY    46  41  81 N5        30.13R
MUSCATINE *    CLOUDY    48  41  76 NW3       30.13R
QUAD CITIES    CLOUDY    46  40  79 W6        30.11R
$$

IAZ062-063-075>077-085>089-095>099-310500-
   SOUTHEAST IOWA

CITY           SKY/WX    TMP DP  RH WIND       PRES   REMARKS
BURLINGTON     CLOUDY    47  42  83 N7        30.11R
FAIRFIELD *    CLOUDY    48  39  71 NW5       30.13S
FORT MADISON * CLOUDY    48  45  87 N3        30.12R
KEOKUK *       CLOUDY    48  43  81 N7        30.10R
OSKALOOSA *    CLOUDY    50  37  62 N15       30.16R
CENTERVILLE *  CLOUDY    48  41  76 N7        30.16R
OTTUMWA        CLOUDY    49  39  68 NW12      30.15R
WASHINGTON *   CLOUDY    46  43  87 NW5       30.13R
$$

ABBREVIATIONS USED IN REMARKS
   TC - TEMPERATURES IN CELSIUS
  WCI - WIND CHILL INDEX
   HX - HEAT INDEX
  VSB - VISIBILITY
$$




USA.gov is the U.S. government's official web portal to all federal, state and local government web resources and services.